Location: Borgo
(42.3939°N, 9.2791°E)
Time: 17:44:02
(UTC+00:00)

Cosmos 2297 Rocket - Pass Details

Date: 27 February 2020
Orbit: 838 x 845 km, 71.0° (Epoch: 27 March)

Event Time Altitude Azimuth Distance (km) Brightness Sun altitude
Rises 17:56:16 0° 348° (NNW) 3,413 5.5 -9.4°
Reaches altitude 10° 17:59:54 10° 11° (N) 2,474 4.5 -10.1°
Maximum altitude 18:03:05 15° 45° (NE) 2,134 3.9 -10.7°
Enters shadow 18:05:10 13° 69° (ENE) 2,285 3.9 -11.0°
